• In Portugal
  • List of Countries
  • For 7 days
  • Water Temperature
  • Satellite Maps
  • Weather Map
  • Weather Widgets
  • user-avatar
    Login

    Hourly Weather Trypolis

    Today, 24 October, Wednesday

    Time Temperature Precipitation Wind Pressure Humidity
    00:00 +28°C° 0 mm 2 mps 756 mmHg 42%
    01:00 +28°C° 0 mm 2 mps 756 mmHg 43%
    02:00 +28°C° 0 mm 1 mps 756 mmHg 43%
    03:00 +28°C° 0.1 mm 2 mps 756 mmHg 44%
    04:00 +27°C° 0.1 mm 2 mps 756 mmHg 44%
    05:00 +27°C° 0.1 mm 2 mps 756 mmHg 45%
    06:00 +28°C° 0.1 mm 2 mps 756 mmHg 43%
    07:00 +29°C° 0.1 mm 2 mps 756 mmHg 41%
    08:00 +30°C° 0.1 mm 2 mps 756 mmHg 39%
    09:00 +31°C° 0 mm 2 mps 756 mmHg 36%
    10:00 +33°C° 0 mm 3 mps 755 mmHg 34%
    11:00 +34°C° 0 mm 3 mps 755 mmHg 31%
    12:00 +33°C° 0 mm 3 mps 755 mmHg 32%
    13:00 +33°C° 0 mm 4 mps 754 mmHg 33%
    14:00 +33°C° 0 mm 4 mps 754 mmHg 34%
    15:00 +31°C° 0 mm 3 mps 754 mmHg 37%
    16:00 +30°C° 0 mm 3 mps 754 mmHg 41%
    17:00 +29°C° 0 mm 3 mps 753 mmHg 44%
    18:00 +29°C° 0.1 mm 3 mps 754 mmHg 48%
    19:00 +28°C° 0.1 mm 3 mps 754 mmHg 52%
    20:00 +27°C° 0.1 mm 4 mps 754 mmHg 56%
    21:00 +27°C° 0.1 mm 4 mps 754 mmHg 58%
    22:00 +27°C° 0.1 mm 5 mps 754 mmHg 61%
    23:00 +26°C° 0.1 mm 5 mps 754 mmHg 63%

    Tomorrow, 25 October, Thursday

    Time Temperature Precipitation Wind Pressure Humidity
    00:00 +26°C° 0.1 mm 5 mps 754 mmHg 64%
    01:00 +26°C° 0.1 mm 5 mps 754 mmHg 65%
    02:00 +25°C° 0.1 mm 4 mps 753 mmHg 66%
    03:00 +25°C° 1 mm 4 mps 753 mmHg 70%
    04:00 +23°C° 1 mm 4 mps 753 mmHg 73%
    05:00 +23°C° 1 mm 4 mps 753 mmHg 76%
    06:00 +23°C° 1.3 mm 5 mps 753 mmHg 75%
    07:00 +23°C° 1.3 mm 5 mps 753 mmHg 74%
    08:00 +22°C° 1.3 mm 5 mps 754 mmHg 72%
    09:00 +23°C° 0.8 mm 6 mps 753 mmHg 69%
    10:00 +24°C° 0.8 mm 6 mps 753 mmHg 66%
    11:00 +24°C° 0.8 mm 7 mps 753 mmHg 63%
    12:00 +24°C° 0.8 mm 7 mps 752 mmHg 63%
    13:00 +24°C° 0.8 mm 7 mps 752 mmHg 63%
    14:00 +24°C° 0.8 mm 8 mps 751 mmHg 63%
    15:00 +24°C° 0.8 mm 8 mps 751 mmHg 66%
    16:00 +24°C° 0.8 mm 8 mps 751 mmHg 69%
    17:00 +23°C° 0.8 mm 8 mps 750 mmHg 71%
    18:00 +23°C° 0.7 mm 9 mps 751 mmHg 72%
    19:00 +23°C° 0.7 mm 9 mps 751 mmHg 73%
    20:00 +23°C° 0.7 mm 9 mps 751 mmHg 74%
    21:00 +23°C° 0.5 mm 9 mps 751 mmHg 73%
    22:00 +22°C° 0.5 mm 9 mps 752 mmHg 72%
    23:00 +22°C° 0.5 mm 9 mps 752 mmHg 72%

    Day after tomorrow, 26 October, Friday

    Time Temperature Precipitation Wind Pressure Humidity
    00:00 +22°C° 0.6 mm 9 mps 752 mmHg 73%
    01:00 +21°C° 0.6 mm 9 mps 752 mmHg 74%
    02:00 +21°C° 0.6 mm 9 mps 753 mmHg 75%
    03:00 +21°C° 0.3 mm 8 mps 753 mmHg 73%
    04:00 +20°C° 0.3 mm 8 mps 754 mmHg 72%
    05:00 +20°C° 0.3 mm 7 mps 754 mmHg 70%
    06:00 +20°C° 0.2 mm 6 mps 755 mmHg 69%
    07:00 +20°C° 0.2 mm 5 mps 756 mmHg 68%
    08:00 +20°C° 0.2 mm 4 mps 757 mmHg 67%
    09:00 +21°C° 0 mm 4 mps 758 mmHg 62%
    10:00 +21°C° 0 mm 4 mps 758 mmHg 56%
    11:00 +22°C° 0 mm 3 mps 758 mmHg 51%
    12:00 +22°C° 0 mm 3 mps 759 mmHg 48%
    13:00 +22°C° 0 mm 3 mps 759 mmHg 46%
    14:00 +24°C° 0 mm 3 mps 759 mmHg 44%
    15:00 +22°C° 0 mm 3 mps 759 mmHg 45%
    16:00 +23°C° 0 mm 2 mps 760 mmHg 47%
    17:00 +21°C° 0 mm 2 mps 760 mmHg 49%
    18:00 +21°C° 0 mm 2 mps 761 mmHg 50%
    19:00 +20°C° 0 mm 2 mps 761 mmHg 51%
    20:00 +20°C° 0 mm 2 mps 762 mmHg 52%
    21:00 +20°C° 0 mm 2 mps 762 mmHg 53%
    22:00 +20°C° 0 mm 2 mps 763 mmHg 53%
    23:00 +20°C° 0 mm 2 mps 763 mmHg 53%

    27 October, Saturday

    Time Temperature Precipitation Wind Pressure Humidity
    00:00 +19°C° 0 mm 2 mps 763 mmHg 54%
    01:00 +19°C° 0 mm 2 mps 763 mmHg 54%
    02:00 +19°C° 0 mm 3 mps 763 mmHg 54%
    03:00 +19°C° 0 mm 2 mps 763 mmHg 54%
    04:00 +19°C° 0 mm 2 mps 763 mmHg 54%
    05:00 +19°C° 0 mm 2 mps 764 mmHg 54%
    06:00 +20°C° 0 mm 2 mps 764 mmHg 51%
    07:00 +20°C° 0 mm 2 mps 764 mmHg 48%
    08:00 +21°C° 0 mm 2 mps 765 mmHg 44%
    09:00 +23°C° 0 mm 2 mps 765 mmHg 40%
    10:00 +25°C° 0 mm 2 mps 765 mmHg 36%
    11:00 +26°C° 0 mm 2 mps 764 mmHg 32%
    12:00 +26°C° 0 mm 2 mps 764 mmHg 31%
    13:00 +26°C° 0 mm 2 mps 764 mmHg 31%
    14:00 +26°C° 0 mm 2 mps 763 mmHg 30%
    15:00 +26°C° 0 mm 2 mps 763 mmHg 31%
    16:00 +25°C° 0 mm 2 mps 763 mmHg 32%
    17:00 +25°C° 0 mm 2 mps 763 mmHg 33%
    18:00 +24°C° 0 mm 3 mps 764 mmHg 34%
    19:00 +24°C° 0 mm 3 mps 764 mmHg 35%
    20:00 +22°C° 0 mm 3 mps 764 mmHg 35%
    21:00 +22°C° 0 mm 3 mps 764 mmHg 36%
    22:00 +22°C° 0 mm 3 mps 764 mmHg 37%
    23:00 +21°C° 0 mm 3 mps 764 mmHg 37%

    28 October, Sunday

    Time Temperature Precipitation Wind Pressure Humidity
    00:00 +21°C° 0 mm 3 mps 764 mmHg 38%
    01:00 +21°C° 0 mm 3 mps 764 mmHg 38%
    02:00 +21°C° 0 mm 3 mps 764 mmHg 38%
    03:00 +20°C° 0 mm 3 mps 764 mmHg 37%
    04:00 +20°C° 0 mm 3 mps 764 mmHg 36%
    05:00 +20°C° 0 mm 3 mps 764 mmHg 35%
    06:00 +21°C° 0 mm 3 mps 764 mmHg 32%
    07:00 +22°C° 0 mm 3 mps 764 mmHg 29%
    08:00 +24°C° 0 mm 3 mps 765 mmHg 27%
    09:00 +26°C° 0 mm 3 mps 764 mmHg 25%
    10:00 +27°C° 0 mm 3 mps 764 mmHg 23%
    11:00 +28°C° 0 mm 3 mps 764 mmHg 21%
    12:00 +28°C° 0 mm 3 mps 763 mmHg 21%
    13:00 +29°C° 0 mm 3 mps 763 mmHg 20%
    14:00 +29°C° 0 mm 3 mps 763 mmHg 20%
    15:00 +28°C° 0 mm 4 mps 763 mmHg 22%
    16:00 +27°C° 0 mm 4 mps 763 mmHg 24%
    17:00 +26°C° 0 mm 4 mps 763 mmHg 26%
    18:00 +26°C° 0 mm 4 mps 763 mmHg 26%
    19:00 +25°C° 0 mm 4 mps 763 mmHg 26%
    20:00 +25°C° 0 mm 4 mps 763 mmHg 25%
    21:00 +23°C° 0 mm 4 mps 763 mmHg 25%
    22:00 +23°C° 0 mm 4 mps 763 mmHg 25%
    23:00 +22°C° 0 mm 3 mps 763 mmHg 25%

    29 October, Monday

    Time Temperature Precipitation Wind Pressure Humidity
    00:00 +22°C° 0 mm 3 mps 763 mmHg 24%
    01:00 +22°C° 0 mm 3 mps 763 mmHg 23%
    02:00 +22°C° 0 mm 3 mps 763 mmHg 22%
    03:00 +21°C° 0 mm 3 mps 763 mmHg 22%
    04:00 +21°C° 0 mm 3 mps 763 mmHg 21%
    05:00 +21°C° 0 mm 3 mps 763 mmHg 21%
    06:00 +22°C° 0 mm 3 mps 763 mmHg 20%
    07:00 +24°C° 0 mm 3 mps 763 mmHg 18%
    08:00 +25°C° 0 mm 3 mps 763 mmHg 17%
    09:00 +27°C° 0 mm 3 mps 763 mmHg 16%
    10:00 +28°C° 0 mm 3 mps 763 mmHg 15%
    11:00 +29°C° 0 mm 3 mps 763 mmHg 14%
    12:00 +30°C° 0 mm 3 mps 763 mmHg 14%
    13:00 +30°C° 0 mm 3 mps 762 mmHg 14%
    14:00 +30°C° 0 mm 4 mps 762 mmHg 14%
    15:00 +29°C° 0 mm 4 mps 762 mmHg 16%
    16:00 +28°C° 0 mm 4 mps 762 mmHg 19%
    17:00 +27°C° 0 mm 4 mps 762 mmHg 22%
    18:00 +26°C° 0 mm 4 mps 762 mmHg 22%
    19:00 +26°C° 0 mm 4 mps 762 mmHg 23%
    20:00 +25°C° 0 mm 4 mps 763 mmHg 23%
    21:00 +25°C° 0 mm 4 mps 763 mmHg 24%
    22:00 +23°C° 0 mm 4 mps 763 mmHg 24%
    23:00 +23°C° 0 mm 4 mps 763 mmHg 24%

    30 October, Tuesday

    Time Temperature Precipitation Wind Pressure Humidity
    00:00 +23°C° 0 mm 4 mps 763 mmHg 24%
    01:00 +22°C° 0 mm 3 mps 762 mmHg 24%
    02:00 +22°C° 0 mm 3 mps 762 mmHg 24%
    03:00 +22°C° 0 mm 3 mps 762 mmHg 25%
    04:00 +22°C° 0 mm 3 mps 762 mmHg 25%
    05:00 +21°C° 0 mm 4 mps 762 mmHg 25%
    06:00 +23°C° 0 mm 4 mps 762 mmHg 24%
    07:00 +25°C° 0 mm 4 mps 762 mmHg 23%
    08:00 +26°C° 0 mm 4 mps 763 mmHg 22%
    09:00 +28°C° 0 mm 4 mps 762 mmHg 20%
    10:00 +29°C° 0 mm 4 mps 762 mmHg 19%
    11:00 +30°C° 0 mm 4 mps 762 mmHg 17%
    12:00 +31°C° 0 mm 3 mps 762 mmHg 17%
    13:00 +31°C° 0 mm 3 mps 761 mmHg 17%
    14:00 +31°C° 0 mm 3 mps 761 mmHg 17%
    15:00 +30°C° 0 mm 2 mps 761 mmHg 20%
    16:00 +29°C° 0 mm 2 mps 761 mmHg 23%
    17:00 +28°C° 0 mm 2 mps 761 mmHg 26%
    18:00 +27°C° 0 mm 3 mps 761 mmHg 27%
    19:00 +27°C° 0 mm 3 mps 761 mmHg 27%
    20:00 +26°C° 0 mm 3 mps 761 mmHg 28%
    21:00 +26°C° 0 mm 3 mps 761 mmHg 28%
    22:00 +25°C° 0 mm 3 mps 761 mmHg 29%
    23:00 +25°C° 0 mm 3 mps 762 mmHg 29%
    Show more